Satellite: NOAA-11
Catalog number: 19531
Epoch time:      08212.80017913
Element set:    0256
Inclination:      098.7981 deg
RA of node:       301.5181 deg
Eccentricity:    0.0010935
Arg of perigee:   306.8035 deg
Mean anomaly:     053.2140 deg
Mean motion:   14.14874759 rev/day
Decay rate:       2.25e-06 rev/day^2
Epoch rev:           02407
Checksum:              277

Satellite: NOAA-12
Catalog number: 21263
Epoch time:      08212.92943773
Element set:    0786
Inclination:      098.7678 deg
RA of node:       214.8769 deg
Eccentricity:    0.0012883
Arg of perigee:   003.5244 deg
Mean anomaly:     356.6023 deg
Mean motion:   14.25540091 rev/day
Decay rate:       -2.0e-08 rev/day^2
Epoch rev:           89462
Checksum:              317

Satellite: MET-3/5
Catalog number: 21655
Epoch time:      08212.95145962
Element set:    0484
Inclination:      082.5539 deg
RA of node:       073.4665 deg
Eccentricity:    0.0012189
Arg of perigee:   265.8905 deg
Mean anomaly:     094.0824 deg
Mean motion:   13.17016520 rev/day
Decay rate:        5.1e-07 rev/day^2
Epoch rev:           81534
Checksum:              307

Satellite: MET-2/21
Catalog number: 22782
Epoch time:      08212.95954659
Element set:    0212
Inclination:      082.5459 deg
RA of node:       076.8546 deg
Eccentricity:    0.0022703
Arg of perigee:   163.7152 deg
Mean anomaly:     196.4739 deg
Mean motion:   13.83629769 rev/day
Decay rate:       -3.1e-07 rev/day^2
Epoch rev:           75318
Checksum:              337

Satellite: OKEAN-4
Catalog number: 23317
Epoch time:      08212.79020165
Element set:    0655
Inclination:      082.5390 deg
RA of node:       274.3847 deg
Eccentricity:    0.0021894
Arg of perigee:   348.5843 deg
Mean anomaly:     011.4874 deg
Mean motion:   14.82625229 rev/day
Decay rate:        1.0e-07 rev/day^2
Epoch rev:           74474
Checksum:              304

Satellite: NOAA-14
Catalog number: 23455
Epoch time:      08212.79051819
Element set:    0244
Inclination:      098.9445 deg
RA of node:       285.0545 deg
Eccentricity:    0.0009888
Arg of perigee:   026.7086 deg
Mean anomaly:     333.4585 deg
Mean motion:   14.13744154 rev/day
Decay rate:      -3.47e-06 rev/day^2
Epoch rev:           70051
Checksum:              320

Satellite: SICH-1
Catalog number: 23657
Epoch time:      08213.78954491
Element set:     453
Inclination:      082.5261 deg
RA of node:       054.4419 deg
Eccentricity:    0.0023572
Arg of perigee:   337.7653 deg
Mean anomaly:     022.2523 deg
Mean motion:   14.81593740 rev/day
Decay rate:       -5.5e-07 rev/day^2
Epoch rev:           69682
Checksum:              312

Satellite: NOAA-15
Catalog number: 25338
Epoch time:      08212.82950929
Element set:    0563
Inclination:      098.5565 deg
RA of node:       203.5828 deg
Eccentricity:    0.0009443
Arg of perigee:   276.5445 deg
Mean anomaly:     083.4607 deg
Mean motion:   14.24716946 rev/day
Decay rate:       -2.8e-07 rev/day^2
Epoch rev:           53101
Checksum:              321

Satellite: RESURS
Catalog number: 25394
Epoch time:      08212.73836740
Element set:     986
Inclination:      098.3827 deg
RA of node:       254.7064 deg
Eccentricity:    0.0002481
Arg of perigee:   069.6041 deg
Mean anomaly:     290.5404 deg
Mean motion:   14.24165996 rev/day
Decay rate:       -4.0e-08 rev/day^2
Epoch rev:           52264
Checksum:              309

Satellite: FENGYUN1
Catalog number: 25730
Epoch time:      08212.98282812
Element set:    0533
Inclination:      098.7223 deg
RA of node:       187.2832 deg
Eccentricity:    0.0022386
Arg of perigee:   047.1799 deg
Mean anomaly:     313.1247 deg
Mean motion:   14.07740744 rev/day
Decay rate:       7.02e-06 rev/day^2
Epoch rev:           47512
Checksum:              298

Satellite: OKEAN-0
Catalog number: 25860
Epoch time:      08212.71191940
Element set:    0433
Inclination:      097.7523 deg
RA of node:       201.3380 deg
Eccentricity:    0.0001661
Arg of perigee:   091.3388 deg
Mean anomaly:     268.7999 deg
Mean motion:   14.73530507 rev/day
Decay rate:        2.9e-07 rev/day^2
Epoch rev:           48580
Checksum:              304

Satellite: NOAA-16
Catalog number: 26536
Epoch time:      08212.84226713
Element set:    0033
Inclination:      099.1581 deg
RA of node:       202.9799 deg
Eccentricity:    0.0011481
Arg of perigee:   100.9030 deg
Mean anomaly:     259.3433 deg
Mean motion:   14.12490155 rev/day
Decay rate:      -2.08e-06 rev/day^2
Epoch rev:           40493
Checksum:              282

Satellite: NOAA-17
Catalog number: 27453
Epoch time:      08212.75738764
Element set:    0028
Inclination:      098.5319 deg
RA of node:       276.1169 deg
Eccentricity:    0.0011482
Arg of perigee:   346.5085 deg
Mean anomaly:     013.5760 deg
Mean motion:   14.23990962 rev/day
Decay rate:       -2.7e-07 rev/day^2
Epoch rev:           31700
Checksum:              312

Satellite: NOAA-18
Catalog number: 28654
Epoch time:      08212.79954960
Element set:    0524
Inclination:      098.8670 deg
RA of node:       153.1964 deg
Eccentricity:    0.0013938
Arg of perigee:   186.5504 deg
Mean anomaly:     173.5473 deg
Mean motion:   14.11181516 rev/day
Decay rate:       -1.0e-07 rev/day^2
Epoch rev:           16462
Checksum:              318

/EX
SB KEPS @ AMSAT  $ORB08213.M
Orbital Elements  08213.MISC

HR AMSAT ORBITAL ELEMENTS FOR MANNED AND MISCELLANEOUS SATELLITES
FROM WA5QGD FORT WORTH,TX July 31, 2008
Send Subscribe/unsubscribe to KEPS at 
http://www.amsat.org/mailman/listinfo/keps
BID: ORB08213.M
TO ALL RADIO AMATEURS BT

Satellite: HUBBLE
Catalog number: 20580
Epoch time:      08212.91334726
Element set:    0190
Inclination:      028.4688 deg
RA of node:       038.0284 deg
Eccentricity:    0.0003778
Arg of perigee:   130.6269 deg
Mean anomaly:     229.4651 deg
Mean motion:   15.00396007 rev/day
Decay rate:       2.81e-06 rev/day^2
Epoch rev:           80155
Checksum:              285

Satellite: PO-34
Catalog number: 25520
Epoch time:      08212.47934729
Element set:    0052
Inclination:      028.4601 deg
RA of node:       248.9373 deg
Eccentricity:    0.0005125
Arg of perigee:   038.9714 deg
Mean anomaly:     321.1250 deg
Mean motion:   15.17214038 rev/day
Decay rate:       3.35e-06 rev/day^2
Epoch rev:           53974
Checksum:              283

Satellite: ISS
Catalog number: 25544
Epoch time:      08212.83484381
Element set:    0955
Inclination:      051.6415 deg
RA of node:       152.0335 deg
Eccentricity:    0.0010007
Arg of perigee:   014.7331 deg
Mean anomaly:     090.0878 deg
Mean motion:   15.72736755 rev/day
Decay rate:      6.537e-05 rev/day^2
Epoch rev:           55540
Checksum:              287

Satellite: CO-58
Catalog number: 28895
Epoch time:      08213.74568765
Element set:      83
Inclination:      098.0952 deg
RA of node:       106.6908 deg
Eccentricity:    0.0016670
Arg of perigee:   270.4317 deg
Mean anomaly:     089.5011 deg
Mean motion:   14.59686459 rev/day
Decay rate:       1.77e-06 rev/day^2
Epoch rev:           14698
Checksum:              359

Satellite: NCUBE2
Catalog number: 28897
Epoch time:      08212.26564224
Element set:    0614
Inclination:      098.0909 deg
RA of node:       105.1714 deg
Eccentricity:    0.0016248
Arg of perigee:   278.2018 deg
Mean anomaly:     081.7330 deg
Mean motion:   14.59857681 rev/day
Decay rate:        6.5e-07 rev/day^2
Epoch rev:           13905
Checksum:              309

Satellite: FCAL
Catalog number: 29667
Epoch time:      08146.34060426
Element set:     979
Inclination:      051.6107 deg
RA of node:       065.3702 deg
Eccentricity:    0.0009039
Arg of perigee:   260.8350 deg
Mean anomaly:     099.5042 deg
Mean motion:   16.53464210 rev/day
Decay rate:  1.1864717e-01 rev/day^2
Epoch rev:            8291
Checksum:              307

Satellite: FALCON
Catalog number: 30776
Epoch time:      08212.55260197
Element set:    0377
Inclination:      035.4346 deg
RA of node:       250.4874 deg
Eccentricity:    0.0001617
Arg of perigee:   355.6568 deg
Mean anomaly:     004.4134 deg
Mean motion:   15.03026172 rev/day
Decay rate:       1.85e-06 rev/day^2
Epoch rev:           07667
Checksum:              288

Satellite: MAST
Catalog number: 31126
Epoch time:      08212.61257114
Element set:     387
Inclination:      098.0357 deg
RA of node:       275.3065 deg
Eccentricity:    0.0094294
Arg of perigee:   196.8104 deg
Mean anomaly:     162.9985 deg
Mean motion:   14.53436967 rev/day
Decay rate:        1.0e-08 rev/day^2
Epoch rev:            6832
Checksum:              307

Satellite: CAPE1
Catalog number: 31130
Epoch time:      08213.91625508
Element set:     367
Inclination:      098.0362 deg
RA of node:       275.4650 deg
Eccentricity:    0.0102597
Arg of perigee:   195.7734 deg
Mean anomaly:     164.0250 deg
Mean motion:   14.51979930 rev/day
Decay rate:       -6.2e-07 rev/day^2
Epoch rev:            6821
Checksum:              294

Satellite: CUTE1-7
Catalog number: 32785
Epoch time:      08211.40323307
Element set:    0116
Inclination:      097.9899 deg
RA of node:       271.2163 deg
Eccentricity:    0.0015420
Arg of perigee:   003.5932 deg
Mean anomaly:     356.5394 deg
Mean motion:   14.81379341 rev/day
Decay rate:       1.51e-06 rev/day^2
Epoch rev:           01365
Checksum:              290

Satellite: COMPASS
Catalog number: 32787
Epoch time:      08213.76394356
Element set:     107
Inclination:      097.9867 deg
RA of node:       273.5239 deg
Eccentricity:    0.0016105
Arg of perigee:   357.1935 deg
Mean anomaly:     002.9186 deg
Mean motion:   14.81440740 rev/day
Decay rate:       1.24e-06 rev/day^2
Epoch rev:            1400
Checksum:              295

